| time (UTC) | temp F | wind direction | speed MPH | gust MPH | rain 1hr in | rain 24hr in | rain mn in | humidity % | barometer mb |
| 20260510220043 | 70 | 0 | 5.0 | 14.0 | 0.00 | 0.01 | 0.00 | 48 | 1010.2 |
| 20260510214545 | 70 | 321 | 3.0 | 9.0 | 0.00 | 0.10 | 0.00 | 51 | 1010.0 |
| 20260510213053 | 71 | 240 | 2.0 | 10.0 | 0.00 | 0.10 | 0.00 | 52 | 1010.0 |
| 20260510211607 | 71 | 232 | 5.0 | 12.0 | 0.00 | 0.10 | 0.00 | 49 | 1010.0 |
| 20260510210040 | 73 | 348 | 1.0 | 10.0 | 0.00 | 0.10 | 0.00 | 49 | 1009.8 |
| 20260510204537 | 73 | 235 | 4.0 | 15.0 | 0.00 | 0.18 | 0.00 | 50 | 1009.8 |
| 20260510203042 | 74 | 0 | 1.0 | 9.0 | 0.00 | 0.18 | 0.00 | 51 | 1009.8 |
| 20260510201542 | 72 | 339 | 2.0 | 7.0 | 0.00 | 0.18 | 0.00 | 61 | 1009.6 |
| 20260510200049 | 71 | 259 | 1.0 | 5.0 | 0.00 | 0.18 | 0.00 | 66 | 1009.7 |
| 20260510194544 | 72 | 300 | 0.0 | 9.0 | 0.00 | 0.25 | 0.00 | 58 | 1009.8 |
| 20260510193035 | 72 | 244 | 4.0 | 10.0 | 0.00 | 0.25 | 0.00 | 58 | 1010.0 |
| 20260510191601 | 73 | 232 | 4.0 | 14.0 | 0.00 | 0.25 | 0.00 | 55 | 1009.9 |
| 20260510190053 | 72 | 5 | 5.0 | 11.0 | 0.00 | 0.25 | 0.00 | 57 | 1010.0 |
| 20260510184540 | 70 | 343 | 3.0 | 9.0 | 0.00 | 0.34 | 0.00 | 62 | 1010.1 |
| 20260510183045 | 72 | 234 | 4.0 | 8.0 | 0.00 | 0.34 | 0.00 | 56 | 1010.2 |
| 20260510181535 | 72 | 197 | 1.0 | 4.0 | 0.00 | 0.34 | 0.00 | 61 | 1010.0 |
| 20260510180051 | 70 | 244 | 1.0 | 6.0 | 0.00 | 0.34 | 0.00 | 61 | 1010.1 |
| 20260510174542 | 72 | 230 | 2.0 | 10.0 | 0.00 | 0.47 | 0.00 | 60 | 1010.1 |
| 20260510173041 | 70 | 0 | 3.0 | 8.0 | 0.00 | 0.47 | 0.00 | 64 | 1010.3 |
| 20260510171542 | 70 | 220 | 1.0 | 5.0 | 0.00 | 0.47 | 0.00 | 64 | 1010.5 |
| 20260510170044 | 71 | 233 | 1.0 | 7.0 | 0.00 | 0.47 | 0.00 | 63 | 1010.7 |
| 20260510164544 | 69 | 0 | 0.0 | 3.0 | 0.00 | 0.54 | 0.00 | 70 | 1010.8 |
| 20260510163043 | 68 | 0 | 0.0 | 6.0 | 0.00 | 0.54 | 0.00 | 70 | 1011.1 |
| 20260510161541 | 67 | 185 | 1.0 | 7.0 | 0.00 | 0.54 | 0.00 | 74 | 1011.2 |
| 20260510160051 | 65 | 0 | 1.0 | 7.0 | 0.00 | 0.54 | 0.00 | 71 | 1011.2 |
| 20260510154552 | 66 | 243 | 2.0 | 5.0 | 0.00 | 0.58 | 0.00 | 70 | 1011.3 |
| 20260510153045 | 65 | 0 | 0.0 | 5.0 | 0.00 | 0.58 | 0.00 | 77 | 1011.3 |
| 20260510151542 | 63 | 0 | 0.0 | 4.0 | 0.00 | 0.58 | 0.00 | 80 | 1011.3 |
| 20260510150042 | 63 | 104 | 0.0 | 3.0 | 0.00 | 0.58 | 0.00 | 84 | 1011.3 |
| 20260510144547 | 60 | 0 | 0.0 | 3.0 | 0.00 | 0.62 | 0.00 | 90 | 1011.4 |
| 20260510143101 | 58 | 0 | 0.0 | 2.0 | 0.00 | 0.62 | 0.00 | 94 | 1011.6 |
| 20260510141538 | 57 | 5 | 0.0 | 2.0 | 0.00 | 0.62 | 0.00 | 96 | 1011.8 |
| 20260510140045 | 57 | 0 | 0.0 | 2.0 | 0.00 | 0.62 | 0.00 | 96 | 1011.8 |
| 20260510134548 | 56 | 0 | 0.0 | 2.0 | 0.00 | 0.62 | 0.00 | 97 | 1011.5 |
| 20260510133043 | 54 | 0 | 0.0 | 2.0 | 0.00 | 0.62 | 0.00 | 97 | 1011.7 |
| 20260510131543 | 53 | 0 | 0.0 | 2.0 | 0.00 | 0.62 | 0.00 | 97 | 1011.7 |
| 20260510130038 | 52 | 0 | 0.0 | 0.0 | 0.00 | 0.62 | 0.00 | 96 | 1011.8 |
| 20260510124552 | 52 | 0 | 0.0 | 0.0 | 0.00 | 0.62 | 0.00 | 96 | 1011.8 |
| 20260510123041 | 51 | 0 | 0.0 | 0.0 | 0.00 | 0.62 | 0.00 | 96 | 1011.7 |
| 20260510121541 | 51 | 0 | 0.0 | 0.0 | 0.00 | 0.62 | 0.00 | 96 | 1011.7 |
| 20260510120041 | 50 | 0 | 0.0 | 0.0 | 0.00 | 0.62 | 0.00 | 96 | 1011.9 |
| 20260510114541 | 50 | 0 | 0.0 | 1.0 | 0.00 | 0.62 | 0.00 | 96 | 1011.7 |
| 20260510113045 | 49 | 0 | 0.0 | 2.0 | 0.00 | 0.62 | 0.00 | 96 | 1011.8 |
| 20260510111542 | 49 | 0 | 0.0 | 0.0 | 0.00 | 0.62 | 0.00 | 96 | 1011.2 |
| 20260510110044 | 48 | 0 | 0.0 | 0.0 | 0.00 | 0.62 | 0.00 | 96 | 1011.3 |
| 20260510104541 | 48 | 0 | 0.0 | 0.0 | 0.00 | 0.62 | 0.00 | 96 | 1011.0 |
| 20260510103040 | 48 | 0 | 0.0 | 0.0 | 0.00 | 0.62 | 0.00 | 96 | 1010.9 |
| 20260510101537 | 47 | 0 | 0.0 | 0.0 | 0.00 | 0.62 | 0.00 | 96 | 1010.7 |
| 20260510100042 | 47 | 0 | 0.0 | 0.0 | 0.00 | 0.62 | 0.00 | 96 | 1010.2 |
| 20260510094551 | 47 | 0 | 0.0 | 0.0 | 0.00 | 0.62 | 0.00 | 96 | 1010.6 |
| 20260510093055 | 47 | 0 | 0.0 | 0.0 | 0.00 | 0.62 | 0.00 | 96 | 1010.3 |
| 20260510091545 | 47 | 0 | 0.0 | 0.0 | 0.00 | 0.62 | 0.00 | 96 | 1010.7 |
| 20260510090037 | 47 | 0 | 0.0 | 0.0 | 0.00 | 0.62 | 0.00 | 96 | 1010.6 |
| 20260510084543 | 47 | 0 | 0.0 | 0.0 | 0.00 | 0.62 | 0.00 | 96 | 1010.7 |
| 20260510083043 | 47 | 0 | 0.0 | 0.0 | 0.00 | 0.62 | 0.00 | 96 | 1010.6 |
| 20260510081541 | 47 | 0 | 0.0 | 0.0 | 0.00 | 0.62 | 0.00 | 96 | 1010.7 |
| 20260510080040 | 47 | 0 | 0.0 | 1.0 | 0.00 | 0.62 | 0.00 | 96 | 1010.6 |
| 20260510074536 | 47 | 0 | 0.0 | 2.0 | 0.00 | 0.62 | 0.00 | 96 | 1010.6 |
| 20260510073047 | 47 | 0 | 1.0 | 2.0 | 0.00 | 0.62 | 0.00 | 96 | 1010.4 |
| 20260510071550 | 47 | 0 | 0.0 | 0.0 | 0.00 | 0.62 | 0.00 | 96 | 1010.5 |
| 20260510070044 | 47 | 0 | 0.0 | 0.0 | 0.00 | 0.62 | 0.00 | 96 | 1010.8 |
| 20260510064541 | 47 | 0 | 0.0 | 2.0 | 0.00 | 0.62 | 0.00 | 96 | 1010.4 |
| 20260510063040 | 47 | 0 | 0.0 | 0.0 | 0.00 | 0.62 | 0.00 | 96 | 1010.7 |
| 20260510061546 | 47 | 0 | 0.0 | 0.0 | 0.00 | 0.62 | 0.00 | 96 | 1010.6 |
| 20260510060045 | 47 | 0 | 0.0 | 0.0 | 0.00 | 0.62 | 0.00 | 96 | 1010.7 |
| 20260510054542 | 47 | 0 | 0.0 | 0.0 | 0.00 | 0.62 | 0.00 | 95 | 1010.7 |
| 20260510053055 | 47 | 0 | 0.0 | 0.0 | 0.00 | 0.62 | 0.00 | 95 | 1010.9 |
| 20260510051547 | 47 | 0 | 0.0 | 0.0 | 0.00 | 0.62 | 0.00 | 95 | 1011.3 |
| 20260510050042 | 46 | 0 | 0.0 | 0.0 | 0.00 | 0.62 | 0.00 | 95 | 1011.2 |
| 20260510044537 | 46 | 0 | 0.0 | 0.0 | 0.00 | 0.62 | 0.00 | 95 | 1011.2 |
| 20260510043058 | 46 | 0 | 0.0 | 2.0 | 0.00 | 0.62 | 0.00 | 95 | 1011.3 |
| 20260510041542 | 46 | 0 | 0.0 | 0.0 | 0.00 | 0.62 | 0.00 | 95 | 1011.1 |
| 20260510040044 | 46 | 0 | 0.0 | 0.0 | 0.00 | 0.62 | 0.00 | 95 | 1011.1 |
| 20260510034542 | 46 | 0 | 0.0 | 0.0 | 0.00 | 0.62 | 0.62 | 95 | 1011.2 |
| 20260510033040 | 46 | 0 | 0.0 | 0.0 | 0.00 | 0.62 | 0.62 | 95 | 1011.6 |
| 20260510031540 | 46 | 0 | 0.0 | 0.0 | 0.00 | 0.62 | 0.62 | 95 | 1011.5 |
| 20260510030041 | 46 | 0 | 0.0 | 0.0 | 0.00 | 0.62 | 0.62 | 95 | 1011.8 |
| 20260510024549 | 46 | 0 | 0.0 | 0.0 | 0.00 | 0.62 | 0.62 | 95 | 1011.9 |
| 20260510023040 | 46 | 0 | 0.0 | 2.0 | 0.00 | 0.62 | 0.62 | 95 | 1011.9 |
| 20260510021542 | 47 | 0 | 0.0 | 0.0 | 0.00 | 0.62 | 0.62 | 95 | 1012.0 |
| 20260510020042 | 47 | 0 | 0.0 | 0.0 | 0.00 | 0.62 | 0.62 | 95 | 1012.0 |
| 20260510014541 | 47 | 0 | 0.0 | 3.0 | 0.00 | 0.62 | 0.62 | 95 | 1012.2 |
| 20260510013048 | 47 | 0 | 0.0 | 0.0 | 0.00 | 0.62 | 0.62 | 95 | 1012.2 |
| 20260510011544 | 47 | 0 | 0.0 | 0.0 | 0.00 | 0.62 | 0.62 | 95 | 1012.1 |
| 20260510010040 | 47 | 0 | 0.0 | 0.0 | 0.00 | 0.62 | 0.62 | 95 | 1012.0 |
| 20260510004546 | 47 | 0 | 0.0 | 0.0 | 0.00 | 0.62 | 0.62 | 95 | 1011.9 |
| 20260510003043 | 47 | 0 | 0.0 | 0.0 | 0.00 | 0.62 | 0.62 | 95 | 1011.7 |
| 20260510001543 | 47 | 0 | 0.0 | 0.0 | 0.00 | 0.62 | 0.62 | 95 | 1011.8 |
| 20260510000048 | 47 | 0 | 0.0 | 0.0 | 0.00 | 0.62 | 0.62 | 95 | 1011.5 |
| 20260509234538 | 47 | 0 | 0.0 | 0.0 | 0.00 | 0.62 | 0.62 | 95 | 1011.3 |
| 20260509233039 | 46 | 0 | 0.0 | 0.0 | 0.00 | 0.62 | 0.62 | 95 | 1011.3 |
| 20260509231544 | 46 | 0 | 0.0 | 0.0 | 0.01 | 0.62 | 0.62 | 95 | 1011.3 |
| 20260509230041 | 47 | 0 | 0.0 | 0.0 | 0.01 | 0.62 | 0.62 | 95 | 1011.2 |
| 20260509224540 | 47 | 0 | 0.0 | 1.0 | 0.02 | 0.62 | 0.62 | 95 | 1011.2 |
| 20260509223040 | 47 | 0 | 0.0 | 2.0 | 0.04 | 0.62 | 0.62 | 95 | 1011.1 |
| 20260509221546 | 47 | 204 | 0.0 | 3.0 | 0.05 | 0.61 | 0.61 | 95 | 1011.4 |